Time,TemperatureF,DewpointF,PressureIn,WindDirection,WindDirectionDegrees,WindSpeedMPH,WindSpeedGustMPH,Humidity,HourlyPrecipIn,Conditions,Clouds,dailyrainin,SolarRadiationWatts/m^2,SoftwareType,DateUTC
2013-01-31 06:02:00,48.0,35.0,-100.00,WNW,297,3.0,6.0,60,0.00,,,0.00,0.000000,,2013-01-31 14:02:00,
2013-01-31 06:32:00,49.0,34.0,-100.00,SW,224,3.0,10.0,56,0.00,,,0.00,0.000000,,2013-01-31 14:32:00,
2013-01-31 06:42:00,49.0,34.0,-100.00,SW,224,3.0,10.0,56,0.00,,,0.00,0.000000,,2013-01-31 14:42:00,
2013-01-31 06:52:00,49.0,34.0,-100.00,SW,224,3.0,10.0,56,0.00,,,0.00,0.000000,,2013-01-31 14:52:00,
2013-01-31 07:02:00,49.0,34.0,-100.00,SW,224,3.0,10.0,56,0.00,,,0.00,0.000000,,2013-01-31 15:02:00,
2013-01-31 07:32:00,49.0,34.0,-100.00,South,178,2.0,7.0,57,0.00,,,0.00,0.000000,,2013-01-31 15:32:00,
2013-01-31 07:42:00,49.0,34.0,-100.00,South,178,2.0,7.0,57,0.00,,,0.00,0.000000,,2013-01-31 15:42:00,
2013-01-31 07:52:00,49.0,34.0,-100.00,South,178,2.0,7.0,57,0.00,,,0.00,0.000000,,2013-01-31 15:52:00,
2013-01-31 08:03:00,49.0,34.0,-100.00,South,178,2.0,7.0,57,0.00,,,0.00,0.000000,,2013-01-31 16:03:00,
2013-01-31 08:33:00,49.0,34.0,-100.00,WSW,250,3.0,6.0,55,0.00,,,0.00,9.000000,,2013-01-31 16:33:00,
2013-01-31 08:42:00,49.0,34.0,-100.00,WSW,250,3.0,6.0,55,0.00,,,0.00,9.000000,,2013-01-31 16:42:00,
2013-01-31 08:52:00,49.0,34.0,-100.00,WSW,250,3.0,6.0,55,0.00,,,0.00,9.000000,,2013-01-31 16:52:00,
2013-01-31 09:02:00,49.0,34.0,-100.00,WSW,250,3.0,6.0,55,0.00,,,0.00,9.000000,,2013-01-31 17:02:00,
2013-01-31 09:32:00,57.0,34.0,-100.00,ENE,60,2.0,5.0,41,0.00,,,0.00,195.000000,,2013-01-31 17:32:00,
2013-01-31 09:44:00,57.0,34.0,-100.00,ENE,60,2.0,5.0,41,0.00,,,0.00,195.000000,,2013-01-31 17:44:00,
2013-01-31 09:53:00,57.0,34.0,-100.00,ENE,60,2.0,5.0,41,0.00,,,0.00,195.000000,,2013-01-31 17:53:00,
2013-01-31 10:02:00,57.0,34.0,-100.00,ENE,60,2.0,5.0,41,0.00,,,0.00,195.000000,,2013-01-31 18:02:00,
2013-01-31 10:32:00,60.0,37.0,-100.00,SE,140,2.0,8.0,42,0.00,,,0.00,429.000000,,2013-01-31 18:32:00,
2013-01-31 10:43:00,60.0,37.0,-100.00,SE,140,2.0,8.0,42,0.00,,,0.00,429.000000,,2013-01-31 18:43:00,
2013-01-31 10:52:00,60.0,37.0,-100.00,SE,140,2.0,8.0,42,0.00,,,0.00,429.000000,,2013-01-31 18:52:00,
2013-01-31 11:02:00,60.0,37.0,-100.00,SE,140,2.0,8.0,42,0.00,,,0.00,429.000000,,2013-01-31 19:02:00,
2013-01-31 11:33:00,67.0,42.0,-100.00,ESE,109,2.0,3.0,40,0.00,,,0.00,556.000000,,2013-01-31 19:33:00,
2013-01-31 11:43:00,67.0,42.0,-100.00,ESE,109,2.0,3.0,40,0.00,,,0.00,556.000000,,2013-01-31 19:43:00,
2013-01-31 11:52:00,67.0,42.0,-100.00,ESE,109,2.0,3.0,40,0.00,,,0.00,556.000000,,2013-01-31 19:52:00,
2013-01-31 12:02:00,67.0,42.0,-100.00,ESE,109,2.0,3.0,40,0.00,,,0.00,556.000000,,2013-01-31 20:02:00,
2013-01-31 13:32:00,67.0,41.0,-100.00,ESE,105,4.0,8.0,39,-99.99,,,0.00,636.000000,,2013-01-31 21:32:00,
2013-01-31 13:42:00,67.0,41.0,-100.00,ESE,105,4.0,8.0,39,-99.99,,,0.00,636.000000,,2013-01-31 21:42:00,
2013-01-31 13:52:00,67.0,41.0,-100.00,ESE,105,4.0,8.0,39,-99.99,,,0.00,636.000000,,2013-01-31 21:52:00,
2013-01-31 14:02:00,67.0,41.0,-100.00,ESE,105,4.0,8.0,39,-99.99,,,0.00,636.000000,,2013-01-31 22:02:00,
2013-01-31 14:33:00,68.0,39.0,-100.00,SE,130,2.0,9.0,35,-99.99,,,0.00,582.000000,,2013-01-31 22:33:00,
2013-01-31 14:42:00,68.0,39.0,-100.00,SE,130,2.0,9.0,35,-99.99,,,0.00,582.000000,,2013-01-31 22:42:00,
2013-01-31 14:52:00,68.0,39.0,-100.00,SE,130,2.0,9.0,35,-99.99,,,0.00,582.000000,,2013-01-31 22:52:00,
2013-01-31 15:02:00,68.0,39.0,-100.00,SE,130,2.0,9.0,35,-99.99,,,0.00,582.000000,,2013-01-31 23:02:00,
2013-01-31 15:32:00,63.0,40.0,-100.00,South,185,3.0,7.0,42,-99.99,,,0.00,337.000000,,2013-01-31 23:32:00,
2013-01-31 15:42:00,63.0,40.0,-100.00,South,185,3.0,7.0,42,-99.99,,,0.00,337.000000,,2013-01-31 23:42:00,
2013-01-31 15:52:00,63.0,40.0,-100.00,South,185,3.0,7.0,42,-99.99,,,0.00,337.000000,,2013-01-31 23:52:00,
2013-01-31 16:01:00,63.0,40.0,-100.00,South,185,3.0,7.0,42,-99.99,,,0.00,337.000000,,2013-02-01 00:01:00,
2013-01-31 16:32:00,59.0,40.0,-100.00,SSW,202,3.0,6.0,49,0.00,,,0.00,24.000000,,2013-02-01 00:32:00,
2013-01-31 16:42:00,59.0,40.0,-100.00,SSW,202,3.0,6.0,49,0.00,,,0.00,24.000000,,2013-02-01 00:42:00,
2013-01-31 16:52:00,59.0,40.0,-100.00,SSW,202,3.0,6.0,49,0.00,,,0.00,24.000000,,2013-02-01 00:52:00,
2013-01-31 17:01:00,59.0,40.0,-100.00,SSW,202,3.0,6.0,49,0.00,,,0.00,24.000000,,2013-02-01 01:01:00,
2013-01-31 17:32:00,55.0,42.0,-100.00,WSW,248,0.0,4.0,61,0.00,,,-99.99,18.000000,,2013-02-01 01:32:00,
2013-01-31 17:42:00,55.0,42.0,-100.00,WSW,248,0.0,4.0,61,0.00,,,-99.99,18.000000,,2013-02-01 01:42:00,
2013-01-31 17:52:00,55.0,42.0,-100.00,WSW,248,0.0,4.0,61,0.00,,,-99.99,18.000000,,2013-02-01 01:52:00,
2013-01-31 18:01:00,55.0,42.0,-100.00,WSW,248,0.0,4.0,61,0.00,,,-99.99,18.000000,,2013-02-01 02:01:00,
2013-01-31 18:32:00,50.0,42.0,-100.00,SSW,197,1.0,3.0,73,0.00,,,0.00,5.000000,,2013-02-01 02:32:00,
2013-01-31 18:42:00,50.0,42.0,-100.00,SSW,197,1.0,3.0,73,0.00,,,0.00,5.000000,,2013-02-01 02:42:00,
2013-01-31 18:52:00,50.0,42.0,-100.00,SSW,197,1.0,3.0,73,0.00,,,0.00,5.000000,,2013-02-01 02:52:00,
2013-01-31 19:01:00,50.0,42.0,-100.00,SSW,197,1.0,3.0,73,0.00,,,0.00,5.000000,,2013-02-01 03:01:00,
2013-01-31 19:33:00,48.0,43.0,-100.00,West,272,2.0,3.0,82,0.00,,,-99.99,0.000000,,2013-02-01 03:33:00,
2013-01-31 19:42:00,48.0,43.0,-100.00,West,272,2.0,3.0,82,0.00,,,-99.99,0.000000,,2013-02-01 03:42:00,
2013-01-31 19:52:00,48.0,43.0,-100.00,West,272,2.0,3.0,82,0.00,,,-99.99,0.000000,,2013-02-01 03:52:00,
2013-01-31 20:02:00,48.0,43.0,-100.00,West,272,2.0,3.0,82,0.00,,,-99.99,0.000000,,2013-02-01 04:02:00,
2013-01-31 20:32:00,54.0,41.0,-100.00,WNW,296,2.0,5.0,62,0.00,,,0.00,0.000000,,2013-02-01 04:32:00,
2013-01-31 20:42:00,54.0,41.0,-100.00,WNW,296,2.0,5.0,62,0.00,,,0.00,0.000000,,2013-02-01 04:42:00,
2013-01-31 20:52:00,54.0,41.0,-100.00,WNW,296,2.0,5.0,62,0.00,,,0.00,0.000000,,2013-02-01 04:52:00,
2013-01-31 21:03:00,54.0,41.0,-100.00,WNW,296,2.0,5.0,62,0.00,,,0.00,0.000000,,2013-02-01 05:03:00,
2013-01-31 21:32:00,53.0,42.0,-100.00,West,266,2.0,5.0,65,0.00,,,0.00,0.000000,,2013-02-01 05:32:00,
2013-01-31 21:42:00,53.0,42.0,-100.00,West,266,2.0,5.0,65,0.00,,,0.00,0.000000,,2013-02-01 05:42:00,
2013-01-31 21:52:00,53.0,42.0,-100.00,West,266,2.0,5.0,65,0.00,,,0.00,0.000000,,2013-02-01 05:52:00,
2013-01-31 22:02:00,53.0,42.0,-100.00,West,266,2.0,5.0,65,0.00,,,0.00,0.000000,,2013-02-01 06:02:00,
2013-01-31 22:32:00,54.0,40.0,-100.00,WNW,291,2.0,6.0,60,0.00,,,0.00,0.000000,,2013-02-01 06:32:00,
2013-01-31 22:42:00,54.0,40.0,-100.00,WNW,291,2.0,6.0,60,0.00,,,0.00,0.000000,,2013-02-01 06:42:00,
2013-01-31 22:52:00,54.0,40.0,-100.00,WNW,291,2.0,6.0,60,0.00,,,0.00,0.000000,,2013-02-01 06:52:00,
2013-01-31 23:01:00,54.0,40.0,-100.00,WNW,291,2.0,6.0,60,0.00,,,0.00,0.000000,,2013-02-01 07:01:00,
2013-01-31 23:32:00,54.0,40.0,-100.00,West,279,3.0,6.0,59,0.00,,,0.00,0.000000,,2013-02-01 07:32:00,
2013-01-31 23:42:00,54.0,40.0,-100.00,West,279,3.0,6.0,59,0.00,,,0.00,0.000000,,2013-02-01 07:42:00,
2013-01-31 23:52:00,54.0,40.0,-100.00,West,279,3.0,6.0,59,0.00,,,0.00,0.000000,,2013-02-01 07:52:00,